Simultaneous Nadir Overpasses (SNOs) Predictions

Prediction of SNOs between METOP-A and TERRA Satellite Orbit:

Table of predicted SNOs for the next 14.0 days since TLE Epoch: 1/12/2019
Index Date (METOP-A) Time (METOP-A) Lat,Lon (METOP-A) SZA (METOP-A ) Date (TERRA) Time (TERRA) Lat,Lon (TERRA) SZA (TERRA ) Distance(km) Time Diff (sec)
1 01/12/2019 02:14:59 81.44,-163.69 105.83 01/12/2019 02:15:03 81.44,-163.81 105.81 2.01 4
2 01/12/2019 03:05:39 -81.44, 4.00 74.15 01/12/2019 03:04:29 -81.45, 4.08 74.16 1.58 70
3 01/14/2019 21:49:14 81.44, -97.40 105.31 01/14/2019 21:49:18 81.44, -97.32 105.32 1.34 4
4 01/14/2019 22:39:54 -81.44, 70.30 74.67 01/14/2019 22:38:45 -81.43, 70.19 74.71 1.87 69
5 01/17/2019 17:23:28 81.44, -30.72 104.78 01/17/2019 17:23:33 81.45, -30.74 104.78 0.65 5
6 01/17/2019 18:14:08 -81.44, 136.98 75.20 01/17/2019 18:13:00 -81.44, 136.80 75.25 3.08 68
7 01/20/2019 12:57:42 81.44, 35.55 104.16 01/20/2019 12:57:48 81.44, 35.54 104.16 0.32 6
8 01/20/2019 13:48:22 -81.44,-156.74 75.82 01/20/2019 13:47:15 -81.44,-156.89 75.87 2.57 67
9 01/23/2019 08:31:57 81.44, 101.81 103.49 01/23/2019 08:32:04 81.44, 101.92 103.50 1.96 7




NCC Satellite Simultaneous Nadir Overpasses (SNOs) Prediction Service
